New Bern, NC

2:16 AM EDT on April 21, 2018 (GMT -0400)
Craven County Regional

Weather History for KEWN - May, 2014

Change the Weather History Date:

Monday, May 12, 2014

  Actual Average Record
Temperature  
Mean Temperature 79 °F 68 °F  
Max Temperature 90 °F 79 °F 95 °F (1964)
Min Temperature 67 °F 57 °F 43 °F (1977)
Degree Days  
Heating Degree Days 0 1  
Month to date heating degree days 0 21  
Since 1 July heating degree days 2632 2688  
Cooling Degree Days 14 5  
Month to date cooling degree days 113 46  
Year to date cooling degree days 198 116  
Growing Degree Days 27 (Base 50)    
Moisture  
Dew Point 67 °F    
Average Humidity 72    
Maximum Humidity 97    
Minimum Humidity 46    
Precipitation  
Precipitation 0.00 in 0.12 in 0.93 in (1967)
Month to date precipitation 0.92 1.48  
Year to date precipitation 16.88 16.72  
Snow  
Snow 0.00 in - - ()
Month to date snowfall 0.0  
Since 1 July snowfall 14.0  
Snow Depth 0.00 in    
Sea Level Pressure  
Sea Level Pressure 30.16 in    
Wind  
Wind Speed 3 mph (South)    
Max Wind Speed 13 mph    
Max Gust Speed 17 mph    
Visibility 5 miles    
Events Fog    
T = Trace of Precipitation, MM = Missing Value Source: NWS Daily Summary

Daily Weather History Graph

Daily Weather History Graph

Search for Another Location

Airport or City:

Astronomy

May. 12, 2014 Rise Set
Actual Time 6:06 AM EDT 8:02 PM EDT
Civil Twilight 5:38 AM EDT 8:30 PM EDT
Nautical Twilight 5:05 AM EDT 9:04 PM EDT
Astronomical Twilight 4:29 AM EDT 9:40 PM EDT
Moon 6:03 PM EDT (5/12) 4:38 AM EDT (5/12)
Length of Visible Light 14h 51m
Length of Day
13h 55m
Waxing Gibbous, 95% of the Moon is Illuminated
May 12
Waxing Gibbous
May 14
Full
May 21
Last Quarter
May 28
New
Jun 5
First Quarter

Hourly Weather History & Observations

Time (EDT) Temp. Heat Index Dew Point Humidity Pressure Visibility Wind Dir Wind Speed Gust Speed Precip Events Conditions
12:54 AM 72.0 °F - 69.1 °F 91% 30.15 in 6.0 mi South 5.8 mph - 0.01 in   Clear
1:54 AM 71.1 °F - 68.0 °F 90% 30.15 in 5.0 mi Calm Calm - N/A   Clear
2:54 AM 69.1 °F - 66.0 °F 90% 30.14 in 4.0 mi Calm Calm - N/A   Clear
3:16 AM 69.8 °F - 66.2 °F 88% 30.14 in 2.0 mi Calm Calm - N/A   Clear
3:19 AM 66.2 °F - 64.4 °F 94% 30.14 in 1.2 mi SSE 3.5 mph - N/A   Partly Cloudy
3:30 AM 66.2 °F - 64.4 °F 94% 30.14 in 3.0 mi Calm Calm - N/A   Partly Cloudy
3:36 AM 68.0 °F - 64.4 °F 88% 30.14 in 2.0 mi Calm Calm - N/A   Mostly Cloudy
3:42 AM 68.0 °F - 64.4 °F 88% 30.14 in 1.0 mi Calm Calm - N/A   Mist
3:45 AM 68.0 °F - 64.4 °F 88% 30.14 in 0.5 mi South 3.5 mph - N/A Fog Fog
3:54 AM 68.0 °F - 66.0 °F 93% 30.14 in 0.2 mi South 3.5 mph - N/A Fog Fog
4:54 AM 69.1 °F - 66.9 °F 93% 30.15 in 0.2 mi Calm Calm - N/A Fog Fog
5:54 AM 69.1 °F - 66.9 °F 93% 30.16 in 0.2 mi Calm Calm - N/A Fog Fog
6:54 AM 69.1 °F - 66.9 °F 93% 30.17 in 0.2 mi Calm Calm - N/A Fog Fog
7:40 AM 69.8 °F - 68.0 °F 94% 30.18 in 1.0 mi Calm Calm - N/A   Mist
7:46 AM 69.8 °F - 68.0 °F 94% 30.18 in 0.5 mi Calm Calm - N/A Fog Fog
7:54 AM 70.0 °F - 68.0 °F 93% 30.19 in 0.8 mi Calm Calm - N/A   Overcast
8:01 AM 69.8 °F - 68.0 °F 94% 30.19 in 1.2 mi SW 3.5 mph - N/A   Overcast
8:35 AM 71.6 °F - 68.0 °F 88% 30.19 in 2.5 mi West 3.5 mph - N/A   Overcast
8:47 AM 71.6 °F - 69.8 °F 94% 30.20 in 3.0 mi Calm Calm - N/A   Overcast
8:54 AM 71.1 °F - 69.1 °F 93% 30.20 in 4.0 mi Calm Calm - N/A   Overcast
9:15 AM 73.4 °F - 69.8 °F 88% 30.20 in 6.0 mi Calm Calm - N/A   Scattered Clouds
10:54 AM 81.0 °F 84.4 °F 70.0 °F 69% 30.21 in 10.0 mi Calm Calm - N/A   Clear
11:54 AM 84.9 °F 89.4 °F 70.0 °F 61% 30.21 in 10.0 mi Calm Calm - N/A   Mostly Cloudy
12:54 PM 84.0 °F 85.4 °F 64.0 °F 51% 30.19 in 10.0 mi Calm Calm - N/A   Partly Cloudy
1:54 PM 87.1 °F 88.3 °F 64.0 °F 46% 30.18 in 10.0 mi Calm Calm - N/A   Clear
2:54 PM 88.0 °F 89.3 °F 64.0 °F 45% 30.17 in 10.0 mi South 3.5 mph - N/A   Clear
3:54 PM 88.0 °F 90.3 °F 66.0 °F 48% 30.14 in 10.0 mi SE 4.6 mph - N/A   Partly Cloudy
4:54 PM 88.0 °F 92.1 °F 69.1 °F 53% 30.13 in 10.0 mi SE 6.9 mph - N/A   Scattered Clouds
5:54 PM 86.0 °F 89.4 °F 68.0 °F 55% 30.13 in 10.0 mi SSE 9.2 mph 17.3 mph N/A   Partly Cloudy
6:54 PM 84.0 °F 86.5 °F 66.9 °F 56% 30.13 in 10.0 mi South 8.1 mph - N/A   Clear
7:54 PM 79.0 °F - 68.0 °F 69% 30.14 in 10.0 mi SSE 5.8 mph - N/A   Clear
8:54 PM 75.9 °F - 68.0 °F 76% 30.15 in 10.0 mi South 4.6 mph - N/A   Clear
9:54 PM 73.9 °F - 69.1 °F 85% 30.16 in 10.0 mi South 6.9 mph - N/A   Clear
10:54 PM 73.0 °F - 70.0 °F 90% 30.17 in 10.0 mi South 4.6 mph - N/A   Clear
11:54 PM 73.0 °F - 70.0 °F 90% 30.16 in 9.0 mi South 5.8 mph - N/A   Clear